Location: Champignolles
(47.0543°N, 4.5663°E)
Time: 09:13:59
(UTC+00:00)

ISS - Pass Details

Date: 04 December 2021
Orbit: 413 x 422 km, 51.6° (Epoch: 27 January)

Event Time Altitude Azimuth Distance (km) Brightness Sun altitude
Rises 18:22:30 0° 292° (WNW) 2,385 1.0 -24.6°
Reaches altitude 10° 18:24:42 10° 284° (WNW) 1,515 0.0 -24.9°
Enters shadow 18:27:08 32° 246° (WSW) 751 -2.0 -25.3°
